STARLINK-1098 (44917 NORAD) Tracking and Keplerian Element Data

This shows tracking and keplerian element data for the satellite.

Feedback or suggestion? Click here.




ElementValue
Catalog44917
NameSTARLINK-1098
Epoch Orbit1328
Epoch Day93.91667824
Epoch Year2020
RAAN353.6327
Inclination53.0015
Eccentricity0.0002126
Argument of Perigee72.8662
Mean Anonmoly207.0299
Mean Motion15.05583007
Decay Rate-0.0002734
L11 44917U 20001D 20093.91667824 -.00027340 00000-0 -18642-2 0 9996
L22 44917 53.0015 353.6327 0002126 72.8662 207.0299 15.05583007 13289

Live tracking and technical data element details for STARLINK-1098 (NORAD 44917). STARLINK-1098 can be tracked NOW for your location showing map with azimuth and elevation plus other details from your city location.

Track the satellite on the map from your city or location and see movement details for azimuth, elevation, latitude, longitude, range, height, and movement on the map or in text.







IsCatalogInMostPopularTable: catalog: 44917, numindb: 19
Update: records affected: 1



GetName: 44917 STARLINK-1098

Hit Count: updated at: Fri, 10 Apr 2020 19:25:53 GMT